0 INTELSAT 2-F1 1 02514U 66096A 25135.28354202 -.00000319 00000-0 00000-0 0 9995 2 02514 17.1749 131.3631 6343723 42.1545 352.2532 2.00563456 86838 0 INTELSAT 3-F3 1 03674U 69011A 25136.61572523 -.00000150 00000-0 00000-0 0 9992 2 03674 10.5177 305.1495 0179951 354.9407 21.7611 0.84931623 63333 0 INTELSAT 605 1 21653U 91055A 25136.88054935 -.00000083 00000-0 00000-0 0 9998 2 21653 13.1653 20.4019 0001454 182.8314 1.0855 0.99328106122995 0 NSS K (INTELSAT K) 1 21989U 92032A 25136.74758588 -.00000053 00000-0 00000-0 0 9993 2 21989 14.6538 15.2210 0079494 353.8855 197.5959 0.97180691128635 0 INTELSAT 701 1 22871U 93066A 25136.88767354 .00000102 00000-0 00000-0 0 9992 2 22871 9.9975 49.7095 0003664 27.1228 166.3391 0.99317863115165 0 INTELSAT 2 (PAS 2) 1 23175U 94040A 25136.88193944 -.00000052 00000-0 00000-0 0 9996 2 23175 11.5393 37.7150 0005032 32.1943 141.5656 0.99194463111711 0 INTELSAT 704 1 23461U 95001A 25137.48521015 -.00000133 00000-0 00000+0 0 9992 2 23461 11.1637 38.7453 0009290 146.8401 46.3533 0.99184032110542 0 INTELSAT 709 1 23915U 96035A 25136.88723914 .00000081 00000-0 00000+0 0 9990 2 23915 9.8901 51.1818 0015355 226.0281 323.3909 0.99178873105459 0 INTELSAT 801 1 24742U 97009A 25136.88367705 -.00000055 00000-0 00000-0 0 9996 2 24742 11.5696 36.1856 0011251 2.9379 182.2336 0.98735767102749 0 INTELSAT 8 (PAS 8) 1 25522U 98065A 25137.50947247 -.00000097 00000-0 00000+0 0 9996 2 25522 8.1291 67.7168 0282125 295.5675 271.2862 0.95186220 95604 0 INTELSAT 9 (PAS 9) 1 26451U 00043A 25136.81978632 -.00000003 00000-0 00000-0 0 9990 2 26451 9.5148 52.7823 0004445 14.7750 168.5846 1.00272154 40166 0 INTELSAT 10 (PAS 10) 1 26766U 01019A 25136.56367939 .00000004 00000-0 00000-0 0 9997 2 26766 8.1250 63.2978 0004359 344.7308 95.5118 1.00272422 41644 0 INTELSAT 902 1 26900U 01039A 25132.29908979 -.00000267 00000-0 00000+0 0 9991 2 26900 5.1038 76.6755 0004277 328.5330 242.6902 1.00270893 86757 0 INTELSAT 32E 1 41945U 17007B 25136.72673459 -.00000256 00000-0 00000+0 0 9991 2 41945 0.0165 41.9347 0000734 319.5713 91.6278 1.00270724 30276 0 INTELSAT 40E 1 56174U 23052A 25137.14488950 -.00000162 00000-0 00000+0 0 9991 2 56174 0.0100 115.7428 0001565 345.0816 95.4378 1.00271309 7868